"read_dt","SO2 (ppb)","flags","PMT voltage (V)","lamp voltage (V)","lamp intensity (Hz)","internal temp (C)","react chamber temp (C)","sample flow (l/min)","pres (mmHg)","SO2 bkg (ppb)","SO2 coefficient"
2018-07-28 00:00:00,-2.655E-01,4C000000*,-702.6,960.554,90,29.3,45.1,0.408,736.0,2.1,1.050*
2018-07-28 00:01:00,-2.635E-01,4C000000*,-702.6,962.575,90,29.3,44.9,0.407,736.0,2.1,1.050*
2018-07-28 00:02:00,-2.896E-01,4C000000*,-702.6,960.554,90,29.3,45.0,0.408,736.0,2.1,1.050*
2018-07-28 00:03:00,-3.002E-01,4C000000*,-703.0,960.554,89,29.3,45.0,0.407,736.0,2.1,1.050*
2018-07-28 00:04:00,-2.790E-01,4C000000*,-702.6,961.767,90,29.3,44.9,0.408,736.0,2.1,1.050*
2018-07-28 00:05:00,-3.339E-01,4C000000*,-702.6,961.362,89,29.3,45.1,0.407,736.0,2.1,1.050*
2018-07-28 00:06:00,-3.049E-01,4C000000*,-702.6,962.171,89,29.3,44.8,0.408,736.0,2.1,1.050*
2018-07-28 00:07:00,-3.966E-01,4C000000*,-702.6,962.979,89,29.4,45.1,0.407,736.0,2.1,1.050*
2018-07-28 00:08:00,-3.176E-01,4C000000*,-702.6,960.554,89,29.4,44.9,0.408,736.0,2.1,1.050*
2018-07-28 00:09:00,-3.191E-01,4C000000*,-703.0,962.171,90,29.3,45.1,0.407,736.0,2.1,1.050*
2018-07-28 00:10:00,-3.198E-01,4C000000*,-702.6,962.171,90,29.3,44.9,0.408,736.0,2.1,1.050*
2018-07-28 00:11:00,-2.727E-01,4C000000*,-702.6,962.575,89,29.4,44.9,0.408,736.0,2.1,1.050*
2018-07-28 00:12:00,-3.333E-01,4C000000*,-702.6,962.575,87,29.3,45.1,0.407,735.7,2.1,1.050*
2018-07-28 00:13:00,-2.829E-01,4C000000*,-702.6,961.362,89,29.4,44.8,0.407,735.7,2.1,1.050*
2018-07-28 00:14:00,-3.194E-01,4C000000*,-703.0,962.575,91,29.4,45.2,0.407,736.0,2.1,1.050*
2018-07-28 00:15:00,-3.435E-01,4C000000*,-702.6,962.575,89,29.5,44.9,0.407,735.7,2.1,1.050*
2018-07-28 00:16:00,-3.537E-01,4C000000*,-702.3,962.979,90,29.4,45.1,0.407,735.7,2.1,1.050*
2018-07-28 00:17:00,-2.977E-01,4C000000*,-702.6,962.171,90,29.4,44.9,0.407,735.7,2.1,1.050*
2018-07-28 00:18:00,-3.069E-01,4C000000*,-702.6,962.171,90,29.4,45.0,0.408,735.7,2.1,1.050*
2018-07-28 00:19:00,-3.797E-01,4C000000*,-703.0,962.575,90,29.4,45.1,0.407,735.7,2.1,1.050*
2018-07-28 00:20:00,-3.806E-01,4C000000*,-703.0,962.979,90,29.4,44.9,0.408,736.0,2.1,1.050*
2018-07-28 00:21:00,-3.484E-01,4C000000*,-702.6,961.767,88,29.5,45.2,0.407,735.7,2.1,1.050*
2018-07-28 00:22:00,-3.516E-01,4C000000*,-702.6,962.979,90,29.5,44.9,0.407,735.7,2.1,1.050*
2018-07-28 00:23:00,-3.687E-01,4C000000*,-702.6,962.979,90,29.5,45.1,0.408,735.7,2.1,1.050*
2018-07-28 00:24:00,-3.237E-01,4C000000*,-702.6,961.767,90,29.4,44.9,0.408,735.7,2.1,1.050*
2018-07-28 00:25:00,-3.326E-01,4C000000*,-702.6,961.362,89,29.4,44.9,0.407,736.0,2.1,1.050*
2018-07-28 00:26:00,-3.568E-01,4C000000*,-702.3,962.979,90,29.4,45.1,0.407,735.7,2.1,1.050*
2018-07-28 00:27:00,-4.009E-01,4C000000*,-702.6,961.362,91,29.5,44.9,0.407,736.0,2.1,1.050*
2018-07-28 00:28:00,-3.371E-01,4C000000*,-702.6,961.362,89,29.4,45.1,0.407,735.7,2.1,1.050*
2018-07-28 00:29:00,-2.887E-01,4C000000*,-703.0,960.958,89,29.4,44.8,0.408,735.7,2.1,1.050*
2018-07-28 00:30:00,-2.687E-01,4C000000*,-702.6,961.362,89,29.5,45.1,0.407,736.0,2.1,1.050*
2018-07-28 00:31:00,-3.196E-01,4C000000*,-703.0,961.362,90,29.5,44.9,0.407,735.7,2.1,1.050*
2018-07-28 00:32:00,-3.420E-01,4C000000*,-702.6,961.362,90,29.4,45.1,0.407,736.0,2.1,1.050*
2018-07-28 00:33:00,-4.141E-01,4C000000*,-703.0,962.575,90,29.5,45.0,0.407,735.7,2.1,1.050*
2018-07-28 00:34:00,-3.969E-01,4C000000*,-702.6,960.958,91,29.5,44.9,0.407,735.7,2.1,1.050*
2018-07-28 00:35:00,-3.550E-01,4C000000*,-702.6,960.958,89,29.5,45.1,0.407,735.7,2.1,1.050*
2018-07-28 00:36:00,-2.522E-01,4C000000*,-702.6,962.575,90,29.5,44.9,0.407,736.0,2.1,1.050*
2018-07-28 00:37:00,-2.975E-01,4C000000*,-702.6,961.362,90,29.6,45.2,0.408,735.7,2.1,1.050*
2018-07-28 00:38:00,-2.636E-01,4C000000*,-703.0,961.767,90,29.5,44.9,0.408,735.7,2.1,1.050*
2018-07-28 00:39:00,-3.604E-01,4C000000*,-702.6,961.362,89,29.5,45.1,0.408,735.7,2.1,1.050*
2018-07-28 00:40:00,-2.708E-01,4C000000*,-702.6,963.788,90,29.4,44.9,0.407,735.7,2.1,1.050*
2018-07-28 00:41:00,-3.556E-01,4C000000*,-703.0,961.767,89,29.4,44.9,0.407,735.7,2.1,1.050*
2018-07-28 00:42:00,-2.358E-01,4C000000*,-702.3,963.384,89,29.4,45.1,0.407,735.7,2.1,1.050*
2018-07-28 00:43:00,-3.472E-01,4C000000*,-702.6,962.171,89,29.5,44.9,0.408,735.7,2.1,1.050*
2018-07-28 00:44:00,-3.312E-01,4C000000*,-702.6,962.171,89,29.4,45.2,0.407,735.7,2.1,1.050*
2018-07-28 00:45:00,-3.215E-01,4C000000*,-702.6,962.171,89,29.5,44.9,0.408,735.7,2.1,1.050*
2018-07-28 00:46:00,-4.274E-01,4C000000*,-702.6,962.575,89,29.4,45.1,0.407,736.0,2.1,1.050*
2018-07-28 00:47:00,-3.941E-01,4C000000*,-703.0,962.171,91,29.5,44.9,0.407,735.7,2.1,1.050*
2018-07-28 00:48:00,-2.650E-01,4C000000*,-702.3,961.767,88,29.5,45.0,0.408,735.7,2.1,1.050*
2018-07-28 00:49:00,-2.761E-01,4C000000*,-702.6,961.767,91,29.5,45.1,0.407,735.7,2.1,1.050*
2018-07-28 00:50:00,-2.478E-01,4C000000*,-703.7,961.767,91,29.5,44.8,0.407,735.7,2.1,1.050*
2018-07-28 00:51:00,-3.638E-01,4C000000*,-702.6,962.575,87,29.5,45.1,0.408,735.7,2.1,1.050*
2018-07-28 00:52:00,-3.384E-01,4C000000*,-702.6,962.979,90,29.6,44.8,0.407,735.7,2.1,1.050*
2018-07-28 00:53:00,-3.720E-01,4C000000*,-702.6,962.979,89,29.6,45.1,0.408,735.7,2.1,1.050*
2018-07-28 00:54:00,-3.007E-01,4C000000*,-703.0,962.979,90,29.5,44.9,0.407,735.7,2.1,1.050*
2018-07-28 00:55:00,-3.045E-01,4C000000*,-702.6,962.171,91,29.5,45.0,0.408,735.7,2.1,1.050*
2018-07-28 00:56:00,-2.564E-01,4C000000*,-702.6,962.171,91,29.6,45.1,0.408,735.7,2.1,1.050*
2018-07-28 00:57:00,-3.425E-01,4C000000*,-702.6,961.767,91,29.5,44.9,0.408,735.7,2.1,1.050*
2018-07-28 00:58:00,-3.533E-01,4C000000*,-702.6,962.979,90,29.6,45.1,0.407,735.7,2.1,1.050*
2018-07-28 00:59:00,-3.599E-01,4C000000*,-702.6,962.979,89,29.6,44.8,0.408,735.7,2.1,1.050*
2018-07-28 01:00:00,-3.401E-01,4C000000*,-702.6,962.171,90,29.6,45.1,0.408,735.7,2.1,1.050*
2018-07-28 01:01:00,-2.990E-01,4C000000*,-702.6,963.384,91,29.6,44.9,0.408,735.4,2.1,1.050*
2018-07-28 01:02:00,-2.957E-01,4C000000*,-703.0,964.597,89,29.5,45.1,0.407,735.7,2.1,1.050*
2018-07-28 01:03:00,-2.541E-01,4C000000*,-702.6,965.001,90,29.6,45.0,0.408,735.7,2.1,1.050*
2018-07-28 01:04:00,-3.647E-01,4C000000*,-702.6,962.979,89,29.6,44.9,0.408,735.7,2.1,1.050*
2018-07-28 01:05:00,-2.969E-01,4C000000*,-702.6,965.001,90,29.6,45.1,0.407,735.7,2.1,1.050*
2018-07-28 01:06:00,-3.823E-01,4C000000*,-702.6,964.192,90,29.6,44.9,0.407,735.7,2.1,1.050*
2018-07-28 01:07:00,-2.806E-01,4C000000*,-702.6,965.405,88,29.6,45.2,0.407,735.7,2.1,1.050*
2018-07-28 01:08:00,-3.058E-01,4C000000*,-702.6,966.214,90,29.6,44.9,0.407,735.7,2.1,1.050*
2018-07-28 01:09:00,-2.848E-01,4C000000*,-702.6,966.214,91,29.6,45.1,0.408,735.7,2.1,1.050*
2018-07-28 01:10:00,-4.087E-01,4C000000*,-702.3,966.214,90,29.6,45.0,0.407,735.7,2.1,1.050*
2018-07-28 01:11:00,-2.594E-01,4C000000*,-703.0,965.809,88,29.6,45.0,0.407,735.7,2.1,1.050*
2018-07-28 01:12:00,-2.900E-01,4C000000*,-702.3,965.809,89,29.6,45.1,0.407,735.4,2.1,1.050*
2018-07-28 01:13:00,-3.506E-01,4C000000*,-702.6,965.405,90,29.6,44.9,0.408,735.4,2.1,1.050*
2018-07-28 01:14:00,-2.278E-01,4C000000*,-702.6,966.618,90,29.6,45.2,0.407,735.7,2.1,1.050*
2018-07-28 01:15:00,-2.798E-01,4C000000*,-702.6,967.022,88,29.6,44.8,0.408,735.7,2.1,1.050*
2018-07-28 01:16:00,-3.917E-01,4C000000*,-702.6,965.001,89,29.6,45.1,0.407,735.7,2.1,1.050*
2018-07-28 01:17:00,-3.711E-01,4C000000*,-702.6,965.405,90,29.7,45.0,0.407,735.4,2.1,1.050*
2018-07-28 01:18:00,-3.495E-01,4C000000*,-702.6,965.405,89,29.6,45.1,0.408,735.7,2.1,1.050*
2018-07-28 01:19:00,-3.459E-01,4C000000*,-702.6,965.809,90,29.6,44.9,0.407,735.4,2.1,1.050*
2018-07-28 01:20:00,-3.942E-01,4C000000*,-702.6,964.597,90,29.6,45.1,0.407,735.7,2.1,1.050*
2018-07-28 01:21:00,-2.915E-01,4C000000*,-702.6,965.001,90,29.7,45.0,0.407,735.7,2.1,1.050*
2018-07-28 01:22:00,-3.513E-01,4C000000*,-702.6,965.809,90,29.7,44.9,0.407,735.7,2.1,1.050*
2018-07-28 01:23:00,-2.755E-01,4C000000*,-702.6,967.427,91,29.8,45.1,0.408,735.7,2.1,1.050*
2018-07-28 01:24:00,-3.697E-01,4C000000*,-703.0,966.618,88,29.7,44.9,0.408,735.7,2.1,1.050*
2018-07-28 01:25:00,-3.509E-01,4C000000*,-702.6,966.214,90,29.7,45.2,0.408,735.7,2.1,1.050*
2018-07-28 01:26:00,-3.383E-01,4C000000*,-702.6,966.214,90,29.7,44.9,0.407,735.4,2.1,1.050*
2018-07-28 01:27:00,-2.659E-01,4C000000*,-703.0,967.022,90,29.7,45.1,0.408,735.4,2.1,1.050*
2018-07-28 01:28:00,-3.820E-01,4C000000*,-702.6,965.001,89,29.7,45.0,0.408,735.4,2.1,1.050*
2018-07-28 01:29:00,-3.157E-01,4C000000*,-702.6,965.405,89,29.8,45.0,0.407,735.7,2.1,1.050*
2018-07-28 01:30:00,-3.253E-01,4C000000*,-702.6,965.809,89,29.7,45.1,0.407,735.7,2.1,1.050*
2018-07-28 01:31:00,-3.436E-01,4C000000*,-702.6,965.405,91,29.7,44.9,0.407,735.4,2.1,1.050*
2018-07-28 01:32:00,-3.263E-01,4C000000*,-702.6,965.001,91,29.7,45.2,0.407,735.7,2.1,1.050*
2018-07-28 01:33:00,-3.445E-01,4C000000*,-702.6,965.001,89,29.7,44.9,0.407,735.4,2.1,1.050*
2018-07-28 01:34:00,-2.896E-01,4C000000*,-702.6,965.001,90,29.8,45.1,0.407,735.7,2.1,1.050*
2018-07-28 01:35:00,-3.300E-01,4C000000*,-702.6,965.809,91,29.8,44.9,0.408,735.4,2.1,1.050*
2018-07-28 01:36:00,-3.029E-01,4C000000*,-702.6,967.022,89,29.7,45.0,0.408,735.7,2.1,1.050*
2018-07-28 01:37:00,-3.276E-01,4C000000*,-702.6,965.809,90,29.7,45.1,0.407,735.4,2.1,1.050*
2018-07-28 01:38:00,-3.978E-01,4C000000*,-702.6,964.597,89,29.7,44.9,0.408,735.7,2.1,1.050*
2018-07-28 01:39:00,-3.607E-01,4C000000*,-702.6,965.405,91,29.8,45.2,0.408,735.4,2.1,1.050*
2018-07-28 01:40:00,-3.911E-01,4C000000*,-703.0,965.405,90,29.8,44.8,0.408,735.4,2.1,1.050*
2018-07-28 01:41:00,-3.420E-01,4C000000*,-702.3,964.597,89,29.8,45.1,0.408,735.4,2.1,1.050*
2018-07-28 01:42:00,-2.455E-01,4C000000*,-702.6,963.384,89,29.7,45.0,0.407,735.4,2.1,1.050*
2018-07-28 01:43:00,-3.269E-01,4C000000*,-702.6,964.192,91,29.8,45.0,0.408,735.7,2.1,1.050*
2018-07-28 01:44:00,-3.385E-01,4C000000*,-702.6,966.214,90,29.8,45.1,0.407,735.4,2.1,1.050*
2018-07-28 01:45:00,-3.108E-01,4C000000*,-702.6,965.809,89,29.8,44.9,0.407,735.4,2.1,1.050*
2018-07-28 01:46:00,-3.127E-01,4C000000*,-702.6,965.001,90,29.8,45.1,0.408,735.4,2.1,1.050*
2018-07-28 01:47:00,-3.370E-01,4C000000*,-702.6,965.405,88,29.8,44.9,0.407,735.4,2.1,1.050*
2018-07-28 01:48:00,-3.442E-01,4C000000*,-703.0,964.192,89,29.9,45.2,0.408,735.4,2.1,1.050*
2018-07-28 01:49:00,-2.673E-01,4C000000*,-702.6,966.214,88,29.8,44.8,0.407,735.4,2.1,1.050*
2018-07-28 01:50:00,-3.222E-01,4C000000*,-702.6,967.022,90,29.8,45.0,0.407,735.4,2.1,1.050*
2018-07-28 01:51:00,-3.279E-01,4C000000*,-702.3,964.597,91,29.8,45.0,0.407,735.4,2.1,1.050*
2018-07-28 01:52:00,-1.919E-01,4C000000*,-703.0,964.192,90,29.9,45.0,0.408,735.4,2.1,1.050*
2018-07-28 01:53:00,-3.261E-01,4C000000*,-703.0,964.192,89,29.9,45.0,0.408,735.4,2.1,1.050*
2018-07-28 01:54:00,-2.630E-01,4C000000*,-703.0,963.384,89,29.9,44.8,0.407,735.4,2.1,1.050*
2018-07-28 01:55:00,-3.166E-01,4C000000*,-703.0,965.001,88,29.9,45.2,0.407,735.4,2.1,1.050*
2018-07-28 01:56:00,-3.161E-01,4C000000*,-703.0,965.001,90,29.9,44.8,0.408,735.4,2.1,1.050*
2018-07-28 01:57:00,-3.416E-01,4C000000*,-702.3,964.597,90,29.9,45.2,0.408,735.4,2.1,1.050*
2018-07-28 01:58:00,-3.122E-01,4C000000*,-702.3,965.405,90,29.9,44.9,0.407,735.4,2.1,1.050*
2018-07-28 01:59:00,-2.355E-01,4C000000*,-703.0,964.597,88,29.9,45.0,0.407,735.4,2.1,1.050*
2018-07-28 02:00:00,-2.897E-01,4C000000*,-702.6,963.384,90,30.0,45.0,0.407,735.4,2.1,1.050*
2018-07-28 02:01:00,-3.579E-01,4C000000*,-702.6,964.192,89,29.9,44.9,0.407,735.4,2.1,1.050*
2018-07-28 02:02:00,-3.496E-01,4C000000*,-702.6,965.001,90,29.9,45.2,0.407,735.4,2.1,1.050*
2018-07-28 02:03:00,-2.994E-01,4C000000*,-702.3,964.597,90,29.9,44.8,0.408,735.4,2.1,1.050*
2018-07-28 02:04:00,-2.743E-01,4C000000*,-702.6,965.001,90,29.9,45.1,0.407,735.4,2.1,1.050*
2018-07-28 02:05:00,-3.475E-01,4C000000*,-703.0,964.597,89,29.9,44.9,0.407,735.4,2.1,1.050*
2018-07-28 02:06:00,-3.240E-01,4C000000*,-702.6,965.001,89,29.9,45.0,0.407,735.4,2.1,1.050*
2018-07-28 02:07:00,-2.832E-01,4C000000*,-702.6,964.597,89,29.9,45.1,0.407,735.4,2.1,1.050*
2018-07-28 02:08:00,-3.244E-01,4C000000*,-702.6,964.597,90,29.9,44.9,0.408,735.4,2.1,1.050*
2018-07-28 02:09:00,-2.899E-01,4C000000*,-703.0,963.788,89,29.9,45.2,0.407,735.4,2.1,1.050*
2018-07-28 02:10:00,-2.632E-01,4C000000*,-702.6,963.384,89,29.9,44.8,0.408,735.4,2.1,1.050*
2018-07-28 02:11:00,-3.539E-01,4C000000*,-702.6,965.001,90,29.9,45.0,0.407,735.4,2.1,1.050*
2018-07-28 02:12:00,-2.962E-01,4C000000*,-702.6,963.788,91,29.9,45.1,0.407,735.4,2.1,1.050*
2018-07-28 02:13:00,-3.633E-01,4C000000*,-702.6,963.788,90,29.9,44.9,0.407,735.4,2.1,1.050*
2018-07-28 02:14:00,-2.854E-01,4C000000*,-702.6,962.979,90,29.9,45.2,0.407,735.4,2.1,1.050*
2018-07-28 02:15:00,-3.839E-01,4C000000*,-702.6,963.384,90,29.9,44.9,0.407,735.4,2.1,1.050*
2018-07-28 02:16:00,-3.544E-01,4C000000*,-702.6,964.597,90,29.9,45.1,0.407,735.4,2.1,1.050*
2018-07-28 02:17:00,-3.157E-01,4C000000*,-702.6,964.597,90,29.9,44.9,0.407,735.1,2.1,1.050*
2018-07-28 02:18:00,-2.911E-01,4C000000*,-702.6,965.001,91,29.9,45.0,0.408,735.4,2.1,1.050*
2018-07-28 02:19:00,-3.437E-01,4C000000*,-702.6,965.001,91,30.0,45.1,0.407,735.1,2.1,1.050*
2018-07-28 02:20:00,-3.624E-01,4C000000*,-702.6,965.001,90,30.0,44.9,0.408,735.4,2.1,1.050*
2018-07-28 02:21:00,-3.807E-01,4C000000*,-702.3,965.405,89,30.0,45.1,0.407,735.4,2.1,1.050*
2018-07-28 02:22:00,-2.948E-01,4C000000*,-702.6,964.192,90,30.0,44.8,0.407,735.4,2.1,1.050*
2018-07-28 02:23:00,-2.754E-01,4C000000*,-702.6,964.192,89,30.1,45.1,0.407,735.4,2.1,1.050*
2018-07-28 02:24:00,-3.002E-01,4C000000*,-702.6,963.788,89,30.0,44.9,0.407,735.1,2.1,1.050*
2018-07-28 02:25:00,-3.492E-01,4C000000*,-702.6,965.001,90,30.1,45.1,0.408,735.4,2.1,1.050*
2018-07-28 02:26:00,-3.531E-01,4C000000*,-702.6,965.809,89,30.1,45.1,0.407,735.1,2.1,1.050*
2018-07-28 02:27:00,-3.860E-01,4C000000*,-702.3,962.979,89,30.0,44.9,0.407,735.4,2.1,1.050*
2018-07-28 02:28:00,-3.215E-01,4C000000*,-702.6,964.597,90,30.0,45.1,0.408,735.4,2.1,1.050*
2018-07-28 02:29:00,-3.278E-01,4C000000*,-702.6,964.597,90,30.0,44.9,0.407,735.1,2.1,1.050*
2018-07-28 02:30:00,-2.553E-01,4C000000*,-702.3,964.597,91,30.1,45.2,0.407,735.4,2.1,1.050*
2018-07-28 02:31:00,-2.799E-01,4C000000*,-702.6,964.597,90,30.1,44.9,0.407,735.4,2.1,1.050*
2018-07-28 02:32:00,-3.298E-01,4C000000*,-702.6,964.192,89,30.0,45.0,0.408,735.4,2.1,1.050*
2018-07-28 02:33:00,-3.841E-01,4C000000*,-702.6,964.597,91,30.1,45.1,0.408,735.1,2.1,1.050*
2018-07-28 02:34:00,-2.904E-01,4C000000*,-702.6,964.192,90,30.1,44.8,0.407,735.1,2.1,1.050*
2018-07-28 02:35:00,-3.571E-01,4C000000*,-702.6,964.192,89,30.0,45.0,0.407,735.4,2.1,1.050*
2018-07-28 02:36:00,-2.942E-01,4C000000*,-702.6,963.788,90,30.1,45.0,0.407,735.1,2.1,1.050*
2018-07-28 02:37:00,-3.877E-01,4C000000*,-702.6,966.214,90,30.2,45.1,0.408,735.1,2.1,1.050*
2018-07-28 02:38:00,-2.807E-01,4C000000*,-702.6,962.979,89,30.2,45.0,0.407,735.1,2.1,1.050*
2018-07-28 02:39:00,-3.394E-01,4C000000*,-702.6,964.192,90,30.2,44.9,0.407,735.1,2.1,1.050*
2018-07-28 02:40:00,-2.168E-01,4C000000*,-702.6,964.192,90,30.2,45.1,0.407,735.1,2.1,1.050*
2018-07-28 02:41:00,-2.529E-01,4C000000*,-702.6,964.192,90,30.3,44.8,0.407,735.1,2.1,1.050*
2018-07-28 02:42:00,-2.652E-01,4C000000*,-703.0,963.384,90,30.3,45.0,0.407,735.4,2.1,1.050*
2018-07-28 02:43:00,-3.745E-01,4C000000*,-702.6,965.405,90,30.5,45.1,0.407,735.1,2.1,1.050*
2018-07-28 02:44:00,-2.363E-01,4C000000*,-702.6,964.192,89,30.5,44.9,0.407,735.1,2.1,1.050*
2018-07-28 02:45:00,-3.059E-01,4C000000*,-702.6,965.001,88,30.6,45.2,0.407,735.1,2.1,1.050*
2018-07-28 02:46:00,-3.143E-01,4C000000*,-702.6,964.192,89,30.6,44.8,0.407,735.1,2.1,1.050*
2018-07-28 02:47:00,-3.147E-01,4C000000*,-702.6,964.597,90,30.6,45.1,0.407,735.1,2.1,1.050*
2018-07-28 02:48:00,-3.129E-01,4C000000*,-702.6,964.597,90,30.6,44.8,0.407,735.1,2.1,1.050*
2018-07-28 02:49:00,-3.077E-01,4C000000*,-702.6,964.597,91,30.6,45.0,0.407,735.1,2.1,1.050*
2018-07-28 02:50:00,-2.777E-01,4C000000*,-702.3,963.788,90,30.6,45.1,0.407,735.1,2.1,1.050*
2018-07-28 02:51:00,-3.169E-01,4C000000*,-702.6,964.192,90,30.6,44.9,0.407,735.4,2.1,1.050*
2018-07-28 02:52:00,-3.029E-01,4C000000*,-702.6,962.979,91,30.6,45.2,0.408,735.1,2.1,1.050*
2018-07-28 02:53:00,-2.968E-01,4C000000*,-702.6,964.192,91,30.6,44.9,0.407,735.1,2.1,1.050*
2018-07-28 02:54:00,-2.884E-01,4C000000*,-702.3,964.597,90,30.5,45.1,0.407,735.4,2.1,1.050*
2018-07-28 02:55:00,-3.534E-01,4C000000*,-703.0,964.192,90,30.5,45.0,0.407,735.1,2.1,1.050*
2018-07-28 02:56:00,-2.398E-01,4C000000*,-702.6,963.788,91,30.5,44.9,0.408,735.1,2.1,1.050*
2018-07-28 02:57:00,-3.259E-01,4C000000*,-702.6,965.001,90,30.5,45.2,0.408,735.4,2.1,1.050*
2018-07-28 02:58:00,-2.835E-01,4C000000*,-702.6,963.384,90,30.4,44.9,0.407,735.1,2.1,1.050*
2018-07-28 02:59:00,-2.734E-01,4C000000*,-702.6,963.384,90,30.5,45.1,0.408,735.1,2.1,1.050*
2018-07-28 03:00:00,-3.280E-01,4C000000*,-702.6,964.192,87,30.5,44.9,0.407,735.1,2.1,1.050*
2018-07-28 03:01:00,-3.277E-01,4C000000*,-702.6,963.788,90,30.4,45.1,0.407,735.1,2.1,1.050*
2018-07-28 03:02:00,-2.278E-01,4C000000*,-702.6,964.192,89,30.4,45.1,0.407,735.1,2.1,1.050*
2018-07-28 03:03:00,-3.012E-01,4C000000*,-702.3,966.214,91,30.4,44.9,0.407,735.1,2.1,1.050*
2018-07-28 03:04:00,-4.118E-01,4C000000*,-702.6,964.597,91,30.4,45.1,0.407,735.1,2.1,1.050*
2018-07-28 03:05:00,-2.551E-01,4C000000*,-702.3,964.192,89,30.4,44.8,0.408,735.1,2.1,1.050*
2018-07-28 03:06:00,-3.615E-01,4C000000*,-702.3,964.597,90,30.3,45.1,0.408,735.1,2.1,1.050*
2018-07-28 03:07:00,-1.850E-01,4C000000*,-702.6,965.405,89,30.3,44.9,0.407,735.1,2.1,1.050*
2018-07-28 03:08:00,-3.241E-01,4C000000*,-702.6,964.192,88,30.3,45.0,0.407,735.1,2.1,1.050*
2018-07-28 03:09:00,-3.471E-01,4C000000*,-702.6,964.597,88,30.4,45.1,0.407,735.1,2.1,1.050*
2018-07-28 03:10:00,-3.321E-01,4C000000*,-702.3,965.001,90,30.3,45.0,0.408,735.1,2.1,1.050*
2018-07-28 03:11:00,-3.243E-01,4C000000*,-702.6,965.001,91,30.4,45.0,0.408,734.8,2.1,1.050*
2018-07-28 03:12:00,-2.839E-01,4C000000*,-702.3,965.001,90,30.3,44.8,0.408,735.1,2.1,1.050*
2018-07-28 03:13:00,-4.178E-01,4C000000*,-702.6,964.597,90,30.4,45.2,0.407,735.1,2.1,1.050*
2018-07-28 03:14:00,-3.328E-01,4C000000*,-702.6,964.597,90,30.3,44.9,0.407,735.1,2.1,1.050*
2018-07-28 03:15:00,-3.518E-01,4C000000*,-703.0,964.192,91,30.3,45.1,0.407,735.1,2.1,1.050*
2018-07-28 03:16:00,-2.971E-01,4C000000*,-703.0,964.597,90,30.3,44.9,0.407,734.8,2.1,1.050*
2018-07-28 03:17:00,-3.150E-01,4C000000*,-702.6,965.405,89,30.3,45.0,0.408,735.1,2.1,1.050*
2018-07-28 03:18:00,-2.957E-01,4C000000*,-702.6,965.001,90,30.3,45.1,0.407,735.1,2.1,1.050*
2018-07-28 03:19:00,-3.698E-01,4C000000*,-702.6,966.214,89,30.3,44.9,0.407,735.1,2.1,1.050*
2018-07-28 03:20:00,-3.630E-01,4C000000*,-702.3,964.192,90,30.3,45.2,0.407,735.1,2.1,1.050*
2018-07-28 03:21:00,-2.682E-01,4C000000*,-703.0,964.597,90,30.3,44.8,0.408,735.1,2.1,1.050*
2018-07-28 03:22:00,-3.478E-01,4C000000*,-702.3,965.809,90,30.3,45.1,0.407,735.1,2.1,1.050*
2018-07-28 03:23:00,-3.395E-01,4C000000*,-702.6,965.809,91,30.3,45.0,0.407,735.1,2.1,1.050*
2018-07-28 03:24:00,-3.482E-01,4C000000*,-702.6,965.809,90,30.3,45.0,0.407,735.1,2.1,1.050*
2018-07-28 03:25:00,-3.487E-01,4C000000*,-702.6,964.597,90,30.3,45.1,0.408,735.1,2.1,1.050*
2018-07-28 03:26:00,-2.675E-01,4C000000*,-702.6,965.001,89,30.3,44.9,0.407,735.1,2.1,1.050*
2018-07-28 03:27:00,-3.383E-01,4C000000*,-703.4,963.788,89,30.3,45.2,0.407,735.1,2.1,1.050*
2018-07-28 03:28:00,-3.341E-01,4C000000*,-702.6,965.001,88,30.3,44.9,0.407,735.1,2.1,1.050*
2018-07-28 03:29:00,-3.146E-01,4C000000*,-702.6,964.597,91,30.2,45.1,0.407,735.1,2.1,1.050*
2018-07-28 03:30:00,-3.680E-01,4C000000*,-702.3,965.809,89,30.3,44.9,0.407,735.1,2.1,1.050*
2018-07-28 03:31:00,-3.468E-01,4C000000*,-702.6,964.597,90,30.3,45.0,0.407,735.1,2.1,1.050*
2018-07-28 03:32:00,-3.006E-01,4C000000*,-702.6,964.192,90,30.3,45.1,0.407,735.1,2.1,1.050*
2018-07-28 03:33:00,-3.104E-01,4C000000*,-702.6,966.618,91,30.2,44.9,0.407,735.1,2.1,1.050*
2018-07-28 03:34:00,-3.311E-01,4C000000*,-702.6,965.405,90,30.3,45.2,0.407,734.8,2.1,1.050*
2018-07-28 03:35:00,-3.344E-01,4C000000*,-702.6,964.192,90,30.3,44.8,0.407,735.1,2.1,1.050*
2018-07-28 03:36:00,-2.758E-01,4C000000*,-702.3,965.001,91,30.3,45.1,0.407,734.8,2.1,1.050*
2018-07-28 03:37:00,-3.592E-01,4C000000*,-702.6,964.597,91,30.3,44.9,0.407,734.8,2.1,1.050*
2018-07-28 03:38:00,-3.290E-01,4C000000*,-702.6,966.214,90,30.2,45.1,0.407,735.1,2.1,1.050*
2018-07-28 03:39:00,-2.456E-01,4C000000*,-702.6,965.809,91,30.3,44.9,0.407,734.8,2.1,1.050*
2018-07-28 03:40:00,-3.500E-01,4C000000*,-703.0,965.809,90,30.2,44.9,0.407,734.8,2.1,1.050*
2018-07-28 03:41:00,-3.832E-01,4C000000*,-702.6,966.618,88,30.3,45.1,0.407,734.8,2.1,1.050*
2018-07-28 03:42:00,-3.170E-01,4C000000*,-702.6,965.405,90,30.2,44.8,0.407,734.8,2.1,1.050*
2018-07-28 03:43:00,-2.904E-01,4C000000*,-702.6,965.001,88,30.3,45.0,0.408,735.1,2.1,1.050*
2018-07-28 03:44:00,-3.594E-01,4C000000*,-702.6,966.618,89,30.3,45.1,0.407,734.8,2.1,1.050*
2018-07-28 03:45:00,-2.292E-01,4C000000*,-702.6,967.022,89,30.3,44.9,0.407,735.1,2.1,1.050*
2018-07-28 03:46:00,-3.125E-01,4C000000*,-702.6,966.618,89,30.2,45.2,0.407,734.8,2.1,1.050*
2018-07-28 03:47:00,-3.233E-01,4C000000*,-702.6,966.618,88,30.2,44.8,0.407,734.8,2.1,1.050*
2018-07-28 03:48:00,-3.523E-01,4C000000*,-702.3,966.214,90,30.2,45.1,0.407,735.1,2.1,1.050*
2018-07-28 03:49:00,-2.774E-01,4C000000*,-702.6,965.001,90,30.2,44.9,0.407,734.8,2.1,1.050*
2018-07-28 03:50:00,-3.090E-01,4C000000*,-702.3,967.022,90,30.3,45.1,0.407,735.1,2.1,1.050*
2018-07-28 03:51:00,-3.893E-01,4C000000*,-702.6,967.427,90,30.3,45.1,0.407,734.8,2.1,1.050*
2018-07-28 03:52:00,-3.175E-01,4C000000*,-702.6,966.618,90,30.3,45.0,0.407,735.1,2.1,1.050*
2018-07-28 03:53:00,-2.455E-01,4C000000*,-703.0,966.214,90,30.3,45.1,0.407,734.8,2.1,1.050*
2018-07-28 03:54:00,-2.827E-01,4C000000*,-702.6,963.788,90,30.3,44.9,0.407,734.8,2.1,1.050*
2018-07-28 03:55:00,-2.857E-01,4C000000*,-703.0,963.788,90,30.2,45.2,0.407,734.8,2.1,1.050*
2018-07-28 03:56:00,-4.326E-01,4C000000*,-702.6,965.001,90,30.3,44.9,0.407,734.8,2.1,1.050*
2018-07-28 03:57:00,-3.101E-01,4C000000*,-702.6,967.022,89,30.3,45.1,0.407,734.8,2.1,1.050*
2018-07-28 03:58:00,-3.096E-01,4C000000*,-702.3,965.405,90,30.2,45.0,0.407,734.5,2.1,1.050*
2018-07-28 03:59:00,-3.427E-01,4C000000*,-702.6,964.192,89,30.3,45.0,0.407,734.8,2.1,1.050*
2018-07-28 04:00:00,-3.205E-01,4C000000*,-702.6,964.597,90,30.3,45.0,0.407,734.8,2.1,1.050*
2018-07-28 04:01:00,-2.745E-01,4C000000*,-702.6,964.192,90,30.3,44.8,0.407,734.8,2.1,1.050*
2018-07-28 04:02:00,-2.674E-01,4C000000*,-703.0,963.384,89,30.3,45.2,0.407,734.8,2.1,1.050*
2018-07-28 04:03:00,-2.677E-01,4C000000*,-702.6,963.788,90,30.2,44.8,0.407,734.8,2.1,1.050*
2018-07-28 04:04:00,-3.183E-01,4C000000*,-702.6,964.192,88,30.3,45.1,0.407,734.8,2.1,1.050*
2018-07-28 04:05:00,-3.688E-01,4C000000*,-702.6,964.192,89,30.3,44.9,0.408,734.8,2.1,1.050*
2018-07-28 04:06:00,-2.504E-01,4C000000*,-703.0,965.001,91,30.3,45.0,0.407,734.8,2.1,1.050*
2018-07-28 04:07:00,-2.694E-01,4C000000*,-702.6,962.979,90,30.3,45.2,0.407,734.8,2.1,1.050*
2018-07-28 04:08:00,-2.871E-01,4C000000*,-702.3,964.192,91,30.3,44.9,0.407,735.1,2.1,1.050*
2018-07-28 04:09:00,-3.452E-01,4C000000*,-703.0,963.788,91,30.3,45.2,0.407,734.8,2.1,1.050*
2018-07-28 04:10:00,-3.558E-01,4C000000*,-702.6,964.192,90,30.4,44.8,0.408,734.8,2.1,1.050*
2018-07-28 04:11:00,-3.253E-01,4C000000*,-702.6,964.597,89,30.3,45.1,0.407,734.8,2.1,1.050*
2018-07-28 04:12:00,-3.607E-01,4C000000*,-702.6,962.575,89,30.3,44.9,0.407,734.8,2.1,1.050*
2018-07-28 04:13:00,-4.140E-01,4C000000*,-702.6,965.001,90,30.3,45.1,0.407,734.8,2.1,1.050*
2018-07-28 04:14:00,-3.507E-01,4C000000*,-702.6,964.597,89,30.3,45.0,0.407,734.8,2.1,1.050*